This is the latest recevied weather packets stored in our database for station/object KA6UPU-1. If no packets are shown the sender has not sent any weather packets the latest 10 day(s).
| Time | Temp. | Humidity | Pressure | Rain* | Wind** | Luminosity | Snow |
|---|---|---|---|---|---|---|---|
| 1788369184 | 21.67° C | 65% | 1016.8 hPa | 0 mm | - | - | - |
| 1788368884 | 21.67° C | 64% | 1016.8 hPa | 0 mm | - | - | - |
| 1788368584 | 21.67° C | 63% | 1016.8 hPa | 0 mm | - | - | - |
| 1788368284 | 22.22° C | 62% | 1016.7 hPa | 0 mm | - | - | - |
| 1788367707 | 21.67° C | 63% | 1016.7 hPa | 0 mm | - | - | - |
| 1788367395 | 21.67° C | 64% | 1016.7 hPa | 0 mm | - | - | - |
| 1788367095 | 21.11° C | 64% | 1016.7 hPa | 0 mm | - | - | - |
| 1788366795 | 21.11° C | 65% | 1016.6 hPa | 0 mm | - | - | - |
| 1788365896 | 20° C | 66% | 1016.7 hPa | 0 mm | - | - | - |
| 1788365595 | 19.44° C | 67% | 1016.7 hPa | 0 mm | - | - | - |
| 1788365296 | 19.44° C | 68% | 1016.6 hPa | 0 mm | - | - | - |
| 1788364995 | 18.89° C | 70% | 1016.6 hPa | 0 mm | - | - | - |
| 1788364695 | 18.89° C | 71% | 1016.6 hPa | 0 mm | - | - | - |
| 1788364395 | 18.33° C | 71% | 1016.7 hPa | 0 mm | - | - | - |
| 1788364095 | 17.78° C | 73% | 1016.6 hPa | 0 mm | - | - | - |
| 1788363795 | 17.78° C | 74% | 1016.6 hPa | 0 mm | - | - | - |
| 1788363495 | 17.22° C | 75% | 1016.7 hPa | 0 mm | - | - | - |
| 1788363195 | 17.22° C | 75% | 1016.7 hPa | 0 mm | - | - | - |
| 1788362895 | 16.67° C | 76% | 1016.7 hPa | 0 mm | - | - | - |
| 1788362595 | 16.11° C | 77% | 1016.6 hPa | 0 mm | - | - | - |
| 1788362295 | 16.11° C | 77% | 1016.6 hPa | 0 mm | - | - | - |
| 1788361995 | 16.11° C | 77% | 1016.6 hPa | 0 mm | - | - | - |
| 1788361696 | 16.11° C | 77% | 1016.6 hPa | 0 mm | - | - | - |
| 1788361095 | 15.56° C | 78% | 1016.4 hPa | 0 mm | - | - | - |
| 1788360795 | 15.56° C | 79% | 1016.2 hPa | 0 mm | - | - | - |
* Rain latest hour (hover to see other rain measurements)
** Current wind speed in m/s (hover to see current wind gust speed)